EFW7SN LCPH-EGKK

Flight info

Callsign EFW7SN
Flight time N/A
Altitude 34000
Route GENOS1W GENOS DCT TOSKA DCT VAXOS DCT RIPLI DCT SIGFO DCT BITLA DCT BONZI DCT RINAV DCT POD DCT BARIT DCT UNIPA DCT PEVAL/N0450F360 DCT BABAG DCT SUMIR DCT SAFFA DCT ELMUR DCT RIPUS DCT DITON DCT HOC DCT LUL DCT RLP DCT ROTSI DCT KOTUN DCT NINAL DCT KESAX DCT KUNAV KUNAV1G
Aircraft A320/M-SDE3FGHIJ1RWXY/SB1

Departure

Time N/A
Airport Paphos International Airport (LCPH)

Arrival

Time 2026-05-03 21:07
Airport London Gatwick Airport (EGKK)
Time Latitude Longitude Altitude Speed Heading
2026-05-03 20:42 49.68800 2.38243 35949 ft 443 kts 303°
2026-05-03 20:42 49.70756 2.34561 35952 ft 444 kts 303°
2026-05-03 20:43 49.74711 2.27242 35962 ft 444 kts 304°
2026-05-03 20:43 49.78725 2.19925 35953 ft 446 kts 304°
2026-05-03 20:44 49.82717 2.12643 35944 ft 447 kts 304°
2026-05-03 20:44 49.86722 2.05274 35944 ft 447 kts 304°
2026-05-03 20:45 49.90954 1.98114 35680 ft 452 kts 308°
2026-05-03 20:45 49.93192 1.94683 35435 ft 452 kts 309°
2026-05-03 20:45 49.95454 1.91285 35201 ft 453 kts 309°
2026-05-03 20:45 49.97728 1.87896 34664 ft 455 kts 309°
2026-05-03 20:46 50.00024 1.84463 33842 ft 459 kts 308°
2026-05-03 20:46 50.02318 1.81000 32896 ft 463 kts 308°
2026-05-03 20:46 50.04624 1.77490 32002 ft 465 kts 308°
2026-05-03 20:46 50.06928 1.73966 31360 ft 462 kts 308°
2026-05-03 20:47 50.09206 1.70482 30809 ft 457 kts 308°
2026-05-03 20:47 50.11460 1.67030 30243 ft 453 kts 309°
2026-05-03 20:47 50.13699 1.63595 29622 ft 450 kts 309°
2026-05-03 20:47 50.15919 1.60184 29048 ft 445 kts 309°
2026-05-03 20:48 50.18110 1.56812 28490 ft 439 kts 309°
2026-05-03 20:48 50.20270 1.53474 27933 ft 435 kts 309°
2026-05-03 20:48 50.22386 1.50202 27389 ft 431 kts 309°
2026-05-03 20:48 50.24528 1.46890 26840 ft 427 kts 309°
2026-05-03 20:49 50.26602 1.43682 26311 ft 423 kts 309°
2026-05-03 20:49 50.28690 1.40450 25773 ft 420 kts 309°
2026-05-03 20:49 50.30756 1.37248 25284 ft 416 kts 310°
2026-05-03 20:49 50.32811 1.34057 24747 ft 414 kts 310°
2026-05-03 20:50 50.34844 1.30896 24265 ft 411 kts 310°
2026-05-03 20:50 50.36866 1.27743 23782 ft 409 kts 310°
2026-05-03 20:50 50.38874 1.24611 23273 ft 406 kts 310°
2026-05-03 20:50 50.40867 1.21506 22800 ft 402 kts 310°
2026-05-03 20:51 50.42840 1.18427 22343 ft 398 kts 310°
2026-05-03 20:51 50.44790 1.15371 21892 ft 396 kts 310°
2026-05-03 20:51 50.46745 1.12349 21404 ft 395 kts 314°
2026-05-03 20:51 50.48958 1.09768 21085 ft 392 kts 321°
2026-05-03 20:52 50.51193 1.07376 20687 ft 388 kts 322°
2026-05-03 20:52 50.53390 1.05030 20249 ft 385 kts 322°
2026-05-03 20:52 50.55593 1.02670 19795 ft 382 kts 322°
2026-05-03 20:52 50.57795 1.00298 18933 ft 390 kts 322°
2026-05-03 20:53 50.60043 0.97849 18270 ft 394 kts 322°
2026-05-03 20:53 50.62293 0.95381 17694 ft 392 kts 322°
2026-05-03 20:53 50.64519 0.92924 17158 ft 389 kts 322°
2026-05-03 20:53 50.66709 0.90469 16654 ft 385 kts 322°
2026-05-03 20:54 50.68909 0.87962 15602 ft 395 kts 322°
2026-05-03 20:54 50.73372 0.82817 14243 ft 396 kts 321°
2026-05-03 20:54 50.75588 0.80245 13632 ft 393 kts 321°
2026-05-03 20:55 50.77776 0.77694 12974 ft 390 kts 321°
2026-05-03 20:55 50.79949 0.75151 12344 ft 386 kts 321°
2026-05-03 20:55 50.82091 0.72636 11717 ft 381 kts 321°
2026-05-03 20:55 50.84207 0.70143 11116 ft 377 kts 321°
2026-05-03 20:56 50.86292 0.67679 10714 ft 368 kts 321°
2026-05-03 20:56 50.88295 0.65308 10601 ft 351 kts 321°
2026-05-03 20:56 50.90211 0.63039 10484 ft 337 kts 321°
2026-05-03 20:56 50.92053 0.60855 10367 ft 324 kts 321°
2026-05-03 20:57 50.93801 0.58783 10261 ft 312 kts 321°
2026-05-03 20:57 50.95511 0.56752 10142 ft 302 kts 321°
2026-05-03 20:57 50.97188 0.54760 10002 ft 293 kts 321°
2026-05-03 20:57 50.98785 0.52859 9736 ft 289 kts 321°
2026-05-03 20:58 51.00410 0.50921 9403 ft 287 kts 321°
2026-05-03 20:58 51.02004 0.49018 9071 ft 286 kts 321°
2026-05-03 20:58 51.03570 0.47146 8751 ft 284 kts 321°
2026-05-03 20:58 51.05147 0.45258 8416 ft 283 kts 321°
2026-05-03 20:59 51.06722 0.43370 8092 ft 282 kts 321°
2026-05-03 20:59 51.08287 0.41492 7770 ft 281 kts 321°
2026-05-03 20:59 51.09820 0.39574 7444 ft 279 kts 314°
2026-05-03 20:59 51.10891 0.37052 7126 ft 274 kts 294°
2026-05-03 21:00 51.11669 0.34303 6675 ft 271 kts 291°
2026-05-03 21:00 51.12162 0.32475 6278 ft 271 kts 291°
2026-05-03 21:00 51.13144 0.28793 5532 ft 267 kts 291°
2026-05-03 21:00 51.13841 0.26142 5161 ft 257 kts 291°
2026-05-03 21:01 51.14509 0.23586 4882 ft 244 kts 291°
2026-05-03 21:01 51.15144 0.21142 4594 ft 232 kts 291°
2026-05-03 21:01 51.15747 0.18821 4306 ft 222 kts 291°
2026-05-03 21:01 51.16329 0.16589 4061 ft 215 kts 291°
2026-05-03 21:02 51.16893 0.14424 3900 ft 208 kts 291°
2026-05-03 21:02 51.17440 0.12327 3734 ft 202 kts 291°
2026-05-03 21:02 51.17976 0.10263 3578 ft 201 kts 291°
2026-05-03 21:02 51.18380 0.08156 3407 ft 199 kts 272°
2026-05-03 21:03 51.18232 0.06020 3206 ft 192 kts 257°
2026-05-03 21:03 51.17950 0.03957 2925 ft 188 kts 257°
2026-05-03 21:03 51.17674 0.01932 2663 ft 185 kts 257°
2026-05-03 21:03 51.17406 -0.00044 2427 ft 181 kts 257°
2026-05-03 21:04 51.17145 -0.01963 2169 ft 173 kts 257°
2026-05-03 21:04 51.16896 -0.03799 1936 ft 166 kts 257°
2026-05-03 21:04 51.16653 -0.05582 1730 ft 163 kts 257°
2026-05-03 21:04 51.16417 -0.07310 1501 ft 161 kts 257°
2026-05-03 21:05 51.16184 -0.09019 1309 ft 151 kts 257°
2026-05-03 21:05 51.15968 -0.10602 1092 ft 143 kts 257°
2026-05-03 21:05 51.15759 -0.12136 897 ft 140 kts 256°
2026-05-03 21:05 51.15558 -0.13651 733 ft 139 kts 257°
2026-05-03 21:06 51.15343 -0.15157 528 ft 140 kts 256°
2026-05-03 21:06 51.15143 -0.16659 307 ft 138 kts 257°
2026-05-03 21:06 51.14938 -0.18119 213 ft 124 kts 258°
2026-05-03 21:06 51.14810 -0.19071 211 ft 64 kts 258°
2026-05-03 21:07 51.14765 -0.19641 209 ft 44 kts 273°
2026-05-03 21:07 51.14816 -0.20016 214 ft 11 kts 294°
2026-05-03 21:07 51.14869 -0.19992 207 ft 12 kts 75°
2026-05-03 21:07 51.14885 -0.19858 207 ft 13 kts 77°
2026-05-03 21:08 51.14906 -0.19713 212 ft 14 kts 77°
2026-05-03 21:08 51.14930 -0.19544 213 ft 17 kts 77°
2026-05-03 21:08 51.14954 -0.19349 210 ft 19 kts 78°
2026-05-03 21:08 51.14985 -0.19129 207 ft 22 kts 77°
2026-05-03 21:09 51.15022 -0.18868 204 ft 26 kts 77°
2026-05-03 21:09 51.15061 -0.18578 207 ft 27 kts 79°
2026-05-03 21:09 51.15101 -0.18287 214 ft 24 kts 81°
2026-05-03 21:09 51.15171 -0.18205 208 ft 13 kts
2026-05-03 21:10 51.15213 -0.18095 205 ft 13 kts 78°
2026-05-03 21:10 51.15232 -0.17956 215 ft 13 kts 78°
2026-05-03 21:10 51.15252 -0.17808 205 ft 14 kts 77°
2026-05-03 21:10 51.15275 -0.17654 211 ft 15 kts 76°
2026-05-03 21:11 51.15295 -0.17490 205 ft 15 kts 81°
2026-05-03 21:11 51.15317 -0.17379 214 ft 6 kts 32°
2026-05-03 21:11 51.15365 -0.17322 205 ft 13 kts 66°
2026-05-03 21:11 51.15391 -0.17180 209 ft 13 kts 72°
2026-05-03 21:12 51.15421 -0.17041 209 ft 14 kts 78°
2026-05-03 21:12 51.15465 -0.16960 205 ft 10 kts 348°
2026-05-03 21:12 51.15487 -0.16968 205 ft 0 kts 347°